Flag for Canada Weather past 2 weeks in Medicine Hat, Alberta, Canada

Now
41 °F

Clear.


Feels Like: 34 °F
Forecast: 35 / 50 °F
Wind: 13 mph from Southwest

Location: Medicine Hat

Current Time: Jan 27, 2015 at 2:18:41 AM

Latest Report: Jan 27, 2015 at 1:00 AM


Visibility: 9 mi

Pressure: 29.78 "Hg

Humidity: 76%

Dew point: 34 °F

Location of Medicine HatLocation

Historic Weather in Medicine Hat — Graph

°F

Medicine Hat temperature yesterday

Maximum temperature yesterday: 55 °F (at 4:00 PM)
Minimum temperature yesterday: 30 °F (at 12:00 AM)
Average temperature yesterday: 41 °F

Past Weeks' High & Low Weather Summary

 TemperatureHumidityPressure
High57 °F (Jan 25, 1:00 PM)100% (Jan 18, 6:00 AM)30.55 "Hg (Jan 18, 6:00 AM)
Low-15 °F (Jan 12, 2:00 AM)46% (Jan 24, 3:00 PM)29.49 "Hg (Jan 16, 1:00 PM)
Average32 °F77%30.03 "Hg
* Reported Jan 12 1:00 AM — Jan 27 1:00 AM, Medicine Hat, Weather by CustomWeather, © 2014

Note: Actual official high and low records may vary slightly from our data, if they occured in-between our weather recording intervals... More about our weather records

Advertising

Medicine Hat weather history for previous 24 hours

 ConditionsComfort  
Time TempWeatherWind HumidityBarometerVisibility
1:00 AM
Jan 27
41 °FClear.13 mph76%29.78 "Hg9 mi
12:00 AM43 °FClear.12 mph71%29.78 "Hg9 mi
11:00 PM
Jan 26
39 °FClear.8 mph81%29.80 "Hg9 mi
10:00 PM39 °FClear.6 mph81%29.79 "Hg9 mi
9:00 PM41 °FClear.12 mph76%29.78 "Hg9 mi
8:00 PM39 °FPassing clouds.10 mph87%29.82 "Hg15 mi
7:00 PM41 °FPassing clouds.6 mph81%29.82 "Hg15 mi
6:00 PM46 °FPassing clouds.2 mph71%29.83 "Hg15 mi
5:00 PM48 °FPartly sunny.6 mph66%29.83 "Hg30 mi
4:00 PM55 °FPartly sunny.2 mph55%29.85 "Hg30 mi
3:00 PM54 °FBroken clouds.5 mph63%29.85 "Hg30 mi
2:00 PM52 °FBroken clouds.6 mph62%29.87 "Hg30 mi
1:00 PM52 °FBroken clouds.7 mph58%29.90 "Hg30 mi
12:00 PM48 °FBroken clouds.10 mph62%29.92 "Hg30 mi
11:00 AM46 °FMore clouds than sun.8 mph62%29.94 "Hg30 mi
10:00 AM43 °FBroken clouds.12 mph71%29.94 "Hg30 mi
9:00 AM41 °FPartly sunny.12 mph76%29.93 "Hg30 mi
8:00 AM37 °FPassing clouds.9 mph87%29.93 "Hg30 mi
7:00 AM39 °FPassing clouds.9 mph81%29.93 "Hg15 mi
6:00 AM39 °FPassing clouds.13 mph81%29.92 "Hg15 mi
5:00 AM34 °FClear.9 mph93%29.94 "Hg9 mi
4:00 AM32 °FClear.5 mph93%29.95 "Hg9 mi
3:00 AM30 °FClear.3 mph100%29.97 "Hg9 mi
2:00 AM30 °FClear.6 mph100%29.98 "Hg9 mi
Weather by CustomWeather, © 2014

See weather overviewHow to use our weather pages